星链-36621(STARLINK-36621)

导读 | 豆包AI

STARLINK-36621是美国SpaceX星链互联网星座的一员,于2026年1月25日发射入轨。星链计划通过部署近地轨道卫星群,为全球提供高速低延迟的互联网覆盖,尤其服务偏远地区与网络基础设施匮乏区域,该卫星加入后将进一步扩充星座容量,提升全球组网服务的稳定性与覆盖密度。

基本信息
目录编号:
67561
目录名称:
STARLINK-36621
国际标识:
2026-016A
轨道中心:
EARTH
卫星名称:
星链-36621
卫星全名:
星链-36621(STARLINK-36621)
卫星状态:
在轨 (已飞行120 天)
发射日期:
2026-01-25 UTC
国别 :
美国 (US)
星等 :
--
轨道信息
数据来源 国际轨道数据 AOE轨道数据
星历时间 2026-05-24T11:18:06+0800
1天前
查看轨道信息
2026-05-19T00:00:00+0800
6天前
查看轨道信息
半长轴 6843.656km 6843.664km
偏心率 0.0000561 0.0000561
轨道倾角 97.285° 97.284°
近地点辐角 109.859° 116.868°
升交点赤经 204.435° 199.041°
平近点角 250.271° 301.441°
近地点 465.135km 465.143km
远地点 465.903km 465.911km
周期 93.906分钟 93.906分钟
每日圈数 15.334534 15.334507
详细信息
固有亮度:
5
最大亮度:
2.5
卫星平台:
Starlink V1.0
覆盖范围:
全球
运营商:
太空探索技术公司
运营商所在国:
美国
制造商(研发单位):
太空探索技术公司
制造商所在国:
美国
使用方式:
暂无
卫星简介
Starlink 计划是 SpaceX 推出的全球卫星互联网项目,通过发射低轨道卫星,为全球尤其是偏远地区提供高速、低延迟的互联网服务。自 2019 年起,Starlink 已部署数千颗卫星,旨在缩小全球数字鸿沟,推动互联网普及。该项目还为军事、航空等行业提供通信支持,带来广泛经济效益。
2D轨道图
3D轨道图
轨道高度分析图
轨道倾角分析图
轨道综合分析图
查看轨道综合分析图